Lid_Strength_Index
-0 -0 1 3 10 11 14 11 8 8 8 6 5 7 8 7 9 12 2 0 0 0 -0 -1 -1 -1 -1 -1 -1 -1 -1 -1 -1 -1 -2 -2 -2 -1 -1 -1 -1 -1 -1 -2 -2 -2 -2 -2 -2
3 3 2 6 13 16 14 9 11 9 7 5 5 6 7 8 4 4 3 0 -0 -0 -0 -0 -1 -1 -1 -1 -1 -1 -1 -1 -1 -1 -2 -2 -2 -2 -2 -2 -2 -2 -2 -2 -2 -2 -1 -1 -1
5 5 6 10 13 16 14 9 9 7 6 6 6 5 6 7 3 3 1 0 -0 -0 -0 -0 -1 -2 -2 -2 -2 -2 -2 -2 -1 -1 -1 -1 -1 -1 -1 -2 -2 -2 -1 -1 -1 -1 -1 -1 -1
6 5 6 11 14 11 10 9 7 7 6 5 6 8 4 2 3 1 0 -0 0 0 -0 -1 -2 -2 -2 -2 -2 -2 -2 -2 -2 -2 -2 -1 -1 -1 -1 -1 -1 -1 -1 -1 -1 -1 -1 -2 -2
7 7 10 12 11 9 8 6 7 7 7 6 6 8 7 3 1 1 1 1 1 0 -0 -0 -2 -2 -2 -3 -3 -3 -3 -3 -3 -3 -2 -2 -2 -1 -1 -1 -1 -1 -1 -1 -1 -1 -1 -1 -2
7 8 11 15 11 9 8 6 6 7 6 6 7 7 6 2 2 1 1 1 -0 0 -0 -0 -2 -2 -2 -3 -3 -3 -3 -3 -3 -3 -3 -2 -2 -2 -1 -1 -2 -2 -2 -1 -1 -1 -1 -1 -2
9 10 12 11 11 10 8 5 7 7 7 7 5 8 5 3 1 1 1 0 0 -0 0 0 -0 -1 -3 -3 -3 -3 -3 -3 -3 -3 -3 -3 -3 -3 -2 -1 -2 -3 -3 -2 -2 -2 -1 -1 -1
8 9 11 11 10 11 7 6 5 6 7 3 4 8 8 4 1 1 2 3 2 0 -0 0 0 0 0 -0 -3 -3 -3 -3 -2 -2 -3 -3 -1 -2 -3 -3 -3 -3 -3 -2 -3 -3 -2 -2 -1
8 11 11 10 9 9 6 7 5 4 6 5 4 4 3 2 1 2 3 3 2 2 2 1 1 1 1 0 -1 -2 -3 -3 -2 -2 -2 -1 1 0 1 -1 -3 -3 -4 -3 -3 -3 -3 -2 -2
7 10 10 7 7 8 6 7 6 6 7 7 5 3 2 2 2 3 3 4 3 2 1 0 0 1 1 -1 0 0 -0 -0 0 0 1 1 2 1 0 -1 -2 -2 -3 -3 -3 -3 -3 -2 -1
7 9 7 6 6 6 7 7 6 7 8 7 7 5 3 3 3 3 3 3 2 2 1 1 1 0 1 1 1 1 0 -0 -0 1 2 2 2 2 2 2 2 1 -1 0 -0 0 0 1 1
8 6 6 6 5 6 7 6 7 7 6 4 4 4 3 3 3 3 3 3 3 2 2 1 1 1 1 1 1 1 1 1 0 1 2 3 2 3 3 2 2 2 1 2 1 1 1 2 2
7 6 5 6 6 6 5 7 7 6 4 3 3 3 4 4 4 4 3 3 2 2 2 1 1 1 1 1 0 1 2 1 2 2 2 2 3 4 4 3 2 2 2 2 2 2 2 2 2
6 6 6 6 6 6 7 7 6 6 4 4 4 4 5 4 3 3 3 3 2 2 2 1 1 1 2 2 1 1 1 2 2 3 3 3 4 4 4 4 3 3 3 3 2 2 3 3 2
6 8 7 7 7 7 6 8 8 5 4 5 5 5 5 4 3 3 3 3 2 2 1 2 2 2 3 3 0 1 2 2 3 3 4 3 4 4 5 4 4 4 3 3 3 3 3 3 2
8 9 12 8 7 6 7 11 7 5 5 6 5 5 5 4 3 3 2 2 2 2 2 3 3 4 4 3 2 2 2 3 3 4 4 4 4 4 5 5 5 4 4 4 3 2 2 2 2
10 14 12 10 7 7 8 10 7 5 5 6 6 5 4 4 3 3 2 2 2 2 3 4 4 4 4 3 3 3 3 3 4 4 4 4 4 3 5 5 5 4 3 3 2 3 3 3 4
13 12 11 11 8 8 9 9 7 6 6 6 6 5 5 5 4 3 2 2 3 2 3 4 4 5 3 3 3 3 3 3 4 5 4 4 4 4 5 5 5 4 3 3 3 4 4 5 4
8 10 11 10 7 9 10 9 8 7 6 6 6 5 5 5 4 3 2 3 3 3 4 4 5 4 3 4 5 4 5 4 5 5 4 4 4 4 5 5 5 4 5 3 4 4 5 6 4
8 10 10 9 8 9 10 10 8 7 7 6 6 6 6 5 4 3 3 4 4 4 4 5 5 3 3 3 4 3 3 4 5 5 5 4 4 4 4 5 5 5 5 5 5 5 6 5 5
9 10 9 11 9 9 11 12 10 8 7 6 6 5 5 5 5 4 4 4 4 5 5 6 4 3 4 3 4 4 4 6 6 6 6 5 4 4 4 4 4 4 5 5 5 5 5 6 4
11 7 7 8 10 16 10 15 11 9 9 7 7 6 6 5 5 4 4 5 5 5 6 5 4 3 3 4 4 6 6 7 7 7 6 6 4 4 3 3 4 4 4 5 5 3 4 3 4
9 7 9 9 11 12 11 13 12 10 11 9 7 6 6 5 5 5 5 5 5 5 6 6 4 4 3 4 5 6 7 6 6 5 5 5 5 4 3 3 3 4 4 4 4 4 3 3 4
7 8 9 10 11 14 14 14 15 12 10 9 7 6 6 5 5 5 5 5 6 6 6 5 5 4 4 4 4 5 6 6 6 6 6 5 5 4 3 2 2 4 3 4 4 3 4 3 2
9 12 15 15 15 15 12 14 15 11 9 9 8 7 6 5 5 5 5 5 6 7 5 4 5 5 4 4 5 5 6 6 6 6 6 5 6 5 3 3 3 2 3 4 4 3 3 3 3
10 12 14 17 19 17 11 15 15 9 8 7 7 6 6 6 5 6 5 6 7 6 5 5 5 5 5 5 5 5 5 6 5 5 5 5 5 5 4 4 3 3 3 3 4 3 3 2 3
10 12 9 13 13 15 15 14 11 9 9 7 8 7 7 6 6 6 5 6 7 6 6 6 5 5 5 5 5 5 5 5 5 4 5 4 4 4 4 4 3 3 3 4 3 5 3 2 2
8 7 12 13 17 18 15 15 15 12 10 9 8 8 7 5 5 4 6 7 7 7 7 5 5 5 5 5 5 5 5 5 4 4 5 5 4 4 4 3 3 4 4 4 4 6 3 3 3
11 12 11 11 13 16 18 17 11 11 10 10 8 7 6 6 5 6 6 7 7 7 6 5 5 5 5 5 5 5 5 5 4 4 4 4 4 3 3 4 3 4 5 5 4 5 4 4 3
9 10 10 14 15 15 16 16 8 8 8 8 8 7 6 5 6 6 7 7 7 7 6 6 6 5 5 5 5 5 5 5 4 5 4 4 4 4 4 4 5 4 5 6 5 5 4 5 4